Simultaneous Nadir Overpasses (SNOs) Predictions

Prediction of SNOs between GOES-16 and METOP-C Satellite Orbit:

Table of predicted SNOs for the next 14.0 days since TLE Epoch: 5/2/2023
Index Date Time (GOES-16) GOES-16 Lat,Lon METOP-C Lat,Lon Distance(km) Time Diff (sec)
1 05/02/2023 14:45:41 0.04, -75.20 0.92, -79.02 436.19 80
2 05/03/2023 14:27:42 0.04, -75.21 -0.21, -74.03 133.80 80
3 05/05/2023 02:46:42 -0.04, -75.21 -0.78, -78.63 389.31 80
4 05/06/2023 02:23:23 -0.04, -75.22 0.34, -73.64 180.68 80
5 05/07/2023 14:42:14 0.03, -75.24 0.67, -78.21 337.20 80
6 05/08/2023 14:24:14 0.03, -75.25 -0.41, -73.20 232.80 80
7 05/10/2023 02:43:14 -0.02, -75.26 -0.59, -77.81 290.40 80
8 05/11/2023 02:19:54 -0.02, -75.26 0.55, -72.81 279.70 80
9 05/12/2023 14:38:45 0.02, -75.29 0.49, -77.37 237.41 80
10 05/13/2023 14:20:45 0.01, -75.30 -0.65, -72.38 333.38 80
11 05/15/2023 02:39:46 -0.01, -75.32 -0.35, -76.98 188.23 80
